Other Public Products
Issued by NWS Charleston, SC

Current Version | Previous Version | Text Only | Print | Product List | Glossary Off
Versions: 1 2 3 4 5 6 7 8 9 10 11 12 13 14 15 16 17 18 19 20 21 22 23 24 25 26 27 28 29 30 31 32 33 34 35 36 37 38 39 40 41 42 43 44 45 46 47 48 49 50

000
FPUS82 KCHS 271027
OPUCHS

TEST...KCHS/KSAV Gateway Observations...TEST
National Weather Service Charleston SC
600 AM EDT MON MAR 27 2017

NOTE: "fair" indicates few or no clouds below 12,000 feet with no
significant weather and/or obstructions to visibility.

SCZ050-WAZ558-NCZ071-TXZ119-213-PAZ071-DCZ001-FLZ074-172-MI076-
NYZ176-178-MAZ016-IL014-TNZ027-NJZ106-GAZ044-MD014-271100-

...Gateway Observations for Charleston International...

CITY           SKY/WX    TMP DP  RH WIND       PRES   REMARKS
Chas Airport   CLEAR     59  55  87 CALM      30.11R
Seattle        CLOUDY    45  42  89 S12       29.89R
Charlotte      MOCLDY    60  56  86 S3        30.11R
Dallas DFW     CLOUDY    70  64  81 SW12      29.79R
Dallas Love    CLOUDY    70  64  81 SW6       29.80S
Philladelphia  FOG       42  41  96 E7        30.12F VSB 3/4
Wash National    N/A     48  47  96 CALM      30.11S FOG
Baltimore      FOG       44  44 100 N3        30.11R VSB 1/4
Miami          PTCLDY    67  60  78 CALM      30.02S
Detroit        CLOUDY    52  51  97 W6        29.90R FOG
Newark         DRZL/FOG  39  38  96 N6        30.16F VSB 1/2 WCI  35
Laguardia      LGT RAIN  40  38  93 NE8       30.16F FOG     WCI  34
J F K          DRZL/FOG  42  41  96 E6        30.17F VSB 1/2
Boston Logan   DRIZZLE   37  37 100 E9        30.26F FOG     WCI  30
Ft. Lauderdale PTCLDY    68  59  73 CALM      30.01F
Chicago O`Hare CLOUDY    50  48  93 NW6       29.89R FOG
Chicago Midway CLOUDY    50  49  96 W8        29.90R FOG
Houston Bush   CLOUDY    72  68  87 SE6       29.86S
Houston Hobby  CLOUDY    72  69  90 S8        29.85F
Nashville      MOCLDY    58  54  86 S5        29.94S
Atlanta        PTCLDY    60  56  86 S3        30.06R

$$

GAZ044-118-TXZ119-213-NCZ071-DCZ001-MDZ014-506-PAZ021-071-NJZ106-
NYZ176-178-MAZ106-OHZ011-021-055-MIZ076-KYZ091-ILZ014-INZ047-
MNZ060-ONZ431-271100-

...Gateway Observations for Savannah International...

CITY           SKY/WX    TMP DP  RH WIND       PRES   REMARKS
Savannah Arpt  PTCLDY    58  55  90 CALM      30.11R
Atlanta        PTCLDY    60  56  86 S3        30.06R
Charlotte      MOCLDY    60  56  86 S3        30.11R
Dallas DFW     CLOUDY    70  64  81 SW12      29.79R
Houston Bush   CLOUDY    72  68  87 SE6       29.86S
Wash National    N/A     48  47  96 CALM      30.11S FOG
Wash Dulles    DRZL/FOG  46  45  96 CALM      30.11R VSB 1/2
Baltimore      FOG       44  44 100 N3        30.11R VSB 1/4
Philadelphia   FOG       42  41  96 E7        30.12F VSB 3/4
Newark         DRZL/FOG  39  38  96 N6        30.16F VSB 1/2 WCI  35
Laguardia      LGT RAIN  40  38  93 NE8       30.16F FOG     WCI  34
J F K          DRZL/FOG  42  41  96 E6        30.17F VSB 1/2
Boston         DRIZZLE   37  37 100 E9        30.26F FOG     WCI  30
Pittsburg      MOCLDY    55  54  96 SW5       29.94R
Akron          CLOUDY    53  50  89 SW7       29.94R
Cleveland      MOCLDY    55  50  83 SW7       29.93R
Cincinnati     CLOUDY    45  45 100 S3        29.97R FOG
Columbus       CLEAR     48  48 100 S5        29.97R FOG
Detroit        CLOUDY    52  51  97 W6        29.90R FOG
Chicago O`Hare CLOUDY    50  48  93 NW6       29.89R FOG
Minneapolis    DRIZZLE   38  34  85 N6        29.96R WCI  33
Indianapolis   PTCLDY    48  46  93 CALM      29.93F
Toronto Canada CLOUDY    43  43 100 SE3       29.86R FOG

$$




USA.gov is the U.S. government's official web portal to all federal, state and local government web resources and services.